Location: Erdweis
(48.5167°N, 15.3500°E)
Time: 13:17:27
(UTC+00:00)

USA 234 - Pass Details

Date: 18 January 2021
Orbit: 1100 x 1107 km, 123.0° (Epoch: 01 March)

Event Time Altitude Azimuth Distance (km) Brightness Sun altitude
Exits shadow 16:34:35 12° 74° (ENE) 2,845 4.7 -9.7°
Maximum altitude 16:40:20 44° 7° (N) 1,492 3.8 -10.6°
Drops below altitude 10° 16:46:27 10° 298° (WNW) 2,969 6.2 -11.5°
Sets 16:49:03 0° 292° (WNW) 3,928 7.0 -11.9°
